Weather History for Indian Springs, NV

Change the Weather History Date:

Saturday, March 2, 2013

  Actual Average (KDRA) Record (KDRA)
Temperature  
Mean Temperature 54 °F -  
Max Temperature 71 °F 57 °F 75 °F (1999)
Min Temperature 36 °F 35 °F 30 °F (2002)
Degree Days  
Heating Degree Days 12    
Growing Degree Days 4 (Base 50)    
Moisture  
Dew Point 23 °F    
Average Humidity 31    
Maximum Humidity 50    
Minimum Humidity 16    
Precipitation  
Precipitation 0.00 in - - ()
Sea Level Pressure  
Sea Level Pressure 30.24 in    
Wind  
Wind Speed 3 mph (ENE)    
Max Wind Speed 13 mph    
Max Gust Speed -    
Visibility 10 miles    
Events      
Averages and records for this station are not official NWS values.
T = Trace of Precipitation, MM = Missing Value Source: NWS Daily Summary

Daily Weather History Graph

Daily Weather History Graph

Search for Another Location

Airport:

Trip Planner

Search our weather history database for the weather conditions in past years. The results will help you decide how hot, cold, wet, or windy it might be!

Date:

Astronomy

Mar. 02, 2013 Rise Set
Actual Time 6:11 AM PST 5:38 PM PST
Civil Twilight 5:45 AM PST 6:04 PM PST
Nautical Twilight 5:15 AM PST 6:34 PM PST
Astronomical Twilight 4:45 AM PST 7:04 PM PST
Moon 11:12 PM PST (3/2) 8:52 AM PST (3/2)
Length of Visible Light 12h 18m
Length of Day
11h 27m
Waning Gibbous, 73% of the Moon is Illuminated
Mar 2
Waning Gibbous
Mar 4
Last Quarter
Mar 11
New
Mar 19
First Quarter
Mar 27
Full

Hourly Weather History & Observations

Time (PST) Temp. Dew Point Humidity Pressure Visibility Wind Dir Wind Speed Gust Speed Precip Events Conditions
12:58 AM 42.8 °F 21.2 °F 42% 30.38 in 10.0 mi East 2.3 mph - N/A   Clear
1:58 AM 41.0 °F 19.2 °F 42% 30.38 in 10.0 mi Calm Calm - N/A   Clear
2:58 AM 40.3 °F 20.7 °F 46% 30.35 in 10.0 mi Calm Calm - N/A   Clear
3:58 AM 38.3 °F 19.2 °F 46% 30.34 in 10.0 mi North 2.3 mph - N/A   Clear
4:58 AM 36.9 °F 19.6 °F 50% 30.35 in 10.0 mi Calm Calm - N/A   Clear
5:58 AM 38.3 °F 20.1 °F 48% 30.35 in 10.0 mi Calm Calm - N/A   Clear
6:58 AM 38.5 °F 20.1 °F 48% 30.35 in 10.0 mi West 1.2 mph - N/A   Clear
7:58 AM 43.0 °F 21.7 °F 43% 30.36 in 10.0 mi Calm Calm - N/A   Clear
8:58 AM 53.4 °F 23.4 °F 31% 30.36 in 10.0 mi North 1.2 mph - N/A   Clear
9:58 AM 58.3 °F 24.8 °F 28% 30.34 in 10.0 mi Calm Calm - N/A   Clear
10:58 AM 62.1 °F 25.2 °F 25% 30.32 in 10.0 mi Calm Calm - N/A   Clear
11:58 AM 65.7 °F 25.0 °F 21% 30.28 in 10.0 mi East 6.9 mph - N/A   Clear
12:58 PM 69.1 °F 25.7 °F 20% 30.23 in 10.0 mi East 6.9 mph - N/A   Clear
1:58 PM 71.2 °F 23.2 °F 16% 30.20 in 10.0 mi East 8.1 mph - N/A   Clear
2:58 PM 70.9 °F 22.8 °F 16% 30.17 in 10.0 mi East 5.8 mph - N/A   Clear
3:58 PM 70.2 °F 23.7 °F 17% 30.15 in 10.0 mi East 12.7 mph - N/A   Clear
4:58 PM 68.4 °F 23.9 °F 19% 30.13 in 10.0 mi ESE 10.4 mph - N/A   Clear
5:58 PM 64.6 °F 25.2 °F 22% 30.12 in 10.0 mi East 11.5 mph - N/A   Clear
6:58 PM 62.1 °F 25.2 °F 25% 30.11 in 10.0 mi ESE 10.4 mph - N/A   Clear
7:58 PM 58.5 °F 25.2 °F 28% 30.11 in 10.0 mi West 6.9 mph - N/A   Clear
8:58 PM 58.5 °F 24.3 °F 27% 30.10 in 10.0 mi WNW 4.6 mph - N/A   Clear
9:58 PM 53.8 °F 24.3 °F 32% 30.10 in 10.0 mi West 3.5 mph - N/A   Clear
10:58 PM 54.5 °F 23.2 °F 30% 30.08 in 10.0 mi NNW 1.2 mph - N/A   Partly Cloudy
11:58 PM 51.1 °F 23.0 °F 33% 30.06 in 10.0 mi Variable 3.5 mph - N/A   Mostly Cloudy